This demonstration page uses our WeatherBlox Daily Observations layout. Learn more.

Left ArrowRight Arrow

34.16533, -84.80231

Hourly Observations for April 6, 2016

Temp ( °F °C ) Dew Point ( °F °C ) Humidity (%) Winds ( mph kmh ) Pressure ( in mb ) Visibility ( mi km ) Precip ( " mm )
12:53 am 00:53 Clear 36 2.2 33 0.6 89 89 Calm 30.22 1023 10 16 0.00 0.00
1:53 am 01:53 Clear 37 2.8 33 0.6 86 86 Calm 30.21 1023 10 16 0.00 0.00
2:53 am 02:53 Clear 47 8.3 33 0.6 59 59 E 3 6 30.22 1024 10 16 0.00 0.00
3:53 am 03:53 Clear 48 8.9 33 0.6 56 56 E 6 9 30.23 1024 10 16 0.00 0.00
4:53 am 04:53 Clear 49 9.4 32 0 52 52 E 8 13 30.22 1023 10 16 0.00 0.00
5:53 am 05:53 Clear 48 8.9 31 -0.6 52 52 ESE 9 15 30.23 1024 10 16 0.00 0.00
6:53 am 06:53 Clear 47 8.3 31 -0.6 54 54 VRB 6 9 30.23 1024 10 16 0.00 0.00
7:53 am 07:53 Sunny 47 8.3 31 -0.6 54 54 ESE 7 11 30.24 1024 10 16 0.00 0.00
8:53 am 08:53 Sunny 48 8.9 33 0.6 56 56 ESE 8 13 30.25 1025 10 16 0.00 0.00
9:53 am 09:53 Sunny 51 10.6 37 2.8 59 59 ESE 12 19 30.24 1024 10 16 0.00 0.00
10:53 am 10:53 Partly Cloudy 54 12.2 40 4.4 59 59 ESE 13 20 30.23 1024 10 16 0.00 0.00
11:53 am 11:53 Cloudy 56 13.3 42 5.6 60 60 SSE 9 15 30.22 1023 10 16 0.00 0.00
12:53 pm 12:53 Mostly Sunny 59 15 44 6.7 58 58 SSE 12 19 30.16 1022 10 16 0.00 0.00
1:53 pm 13:53 Sunny 62 16.7 45 7.2 54 54 SE 9 15 30.13 1020 10 16 0.00 0.00
2:53 pm 14:53 Sunny 63 17.2 46 7.8 54 54 S 9 15 30.08 1019 10 16 0.00 0.00
3:53 pm 15:53 Sunny 64 17.8 47 8.3 54 54 SE 12 19 30.02 1017 10 16 0.00 0.00
4:53 pm 16:53 Mostly Sunny 67 19.4 48 8.9 51 51 S 12 19 29.98 1015 10 16 0.00 0.00
5:53 pm 17:53 Sunny 66 18.9 48 8.9 52 52 SSE 13 20 29.95 1014 10 16 0.00 0.00
6:53 pm 18:53 Mostly Sunny 64 17.8 49 9.4 58 58 SE 8 13 29.90 1013 10 16 0.00 0.00
7:53 pm 19:53 Sunny 63 17.2 49 9.4 60 60 SE 7 11 29.86 1011 10 16 0.00 0.00
8:53 pm 20:53 Mostly Cloudy 63 17.2 48 8.9 58 58 SE 9 15 29.81 1010 10 16 0.00 0.00
9:17 pm 21:17 Cloudy with Nearby Thunderstorms 63 17.2 49 9.4 60 60 SSE 13 20 29.83 1010 10 16 0.00 0.00
9:51 pm 21:51 Cloudy with Thunderstorms 61 16 52 11 72 72 VRB 6 9 29.80 1009 8 13 0.03 0.76
9:53 pm 21:53 Cloudy with Strong Thunderstorms 60 15.6 52 11.1 75 75 VRB 6 9 29.79 1009 6 10 0.05 1.27
10:01 pm 22:01 Cloudy with Strong Thunderstorms 57 13.9 54 12.2 90 90 VRB 6 9 29.88 1012 2 2 0.23 5.84
10:12 pm 22:12 Cloudy with Thunderstorms 55 12.8 54 12.2 96 96 VRB 5 7 29.83 1010 3 5 0.31 7.87
10:53 pm 22:53 Mostly Cloudy with Thunderstorms 56 13.3 54 12.2 93 93 S 9 15 29.80 1009 9 14 0.31 7.87
11:20 pm 23:20 Cloudy with Strong Thunderstorms 54 12.2 53 11.7 97 97 VRB 3 6 29.88 1012 2 3 0.17 4.32
11:30 pm 23:30 Cloudy with Strong Thunderstorms 53 11.7 52 11.1 96 96 VRB 3 6 29.88 1012 2 3 0.25 6.35
11:43 pm 23:43 Cloudy with Nearby Thunderstorms 53 11.7 52 11.1 96 96 Calm 29.88 1012 3 5 0.32 8.13
11:49 pm 23:49 Cloudy with Thunderstorms 54 12 52 11 94 94 Calm 29.85 1011 3 4 0.35 8.89
11:53 pm 23:53 Cloudy with Strong Thunderstorms 53 11.7 52 11.1 96 96 Calm 29.84 1010 3 4 0.37 9.40

Powered by AerisWeather